GEC838Z RJAA-EDDF

Flight info

Callsign GEC838Z
Flight time N/A
Altitude 31000
Route GULBO2 GULBO Y808 PUTER A590 PUGAL/N0484F330 A590 POWAL DCT OPAKE DCT NATES R338 MARCC DCT JUJXI/N0489F350 DCT OMEKA DCT 81N120W 82N100W/N0483F370 82N080W 82N060W/M083F370 81N040W 77N020W 73N010W DCT ISVIG/N0481F390 DCT ATNAK DCT SUTEB DCT SOGPO DCT DIXAT DIXAT1B
Aircraft B77L/H-SDE2E3FGHIJ1J3J4J5M1P2RWXYZ/LB1D1

Departure

Time N/A
Airport Narita International Airport (RJAA)

Arrival

Time 2026-04-18 06:31
Airport Frankfurt Main Airport (EDDF)
Time Latitude Longitude Altitude Speed Heading
2026-04-18 00:37 81.70448 -108.96875 37106 ft 487 kts 73°
2026-04-18 00:37 81.72458 -108.52038 37105 ft 487 kts 74°
2026-04-18 00:38 81.74415 -108.07013 37099 ft 487 kts 75°
2026-04-18 00:38 81.76313 -107.62033 37097 ft 487 kts 75°
2026-04-18 00:39 81.78173 -107.16521 37092 ft 487 kts 76°
2026-04-18 00:39 81.79981 -106.70802 37085 ft 487 kts 76°
2026-04-18 00:40 81.81736 -106.24941 37086 ft 487 kts 76°
2026-04-18 00:40 81.83440 -105.78876 37081 ft 487 kts 77°
2026-04-18 00:41 81.85080 -105.32926 37076 ft 487 kts 77°
2026-04-18 00:41 81.86678 -104.86527 37076 ft 487 kts 78°
2026-04-18 00:42 81.88223 -104.39938 37070 ft 487 kts 78°
2026-04-18 00:42 81.89714 -103.93198 37065 ft 487 kts 79°
2026-04-18 00:43 81.91153 -103.46268 37062 ft 487 kts 79°
2026-04-18 00:43 81.92537 -102.99212 37057 ft 487 kts 79°
2026-04-18 00:44 81.93868 -102.51980 37058 ft 487 kts 80°
2026-04-18 00:44 81.95146 -102.04537 37051 ft 487 kts 81°
2026-04-18 00:45 81.96360 -101.57332 37048 ft 487 kts 81°
2026-04-18 00:45 81.97528 -101.09668 37042 ft 487 kts 82°
2026-04-18 00:46 81.98641 -100.61870 37040 ft 487 kts 82°
2026-04-18 00:46 81.99709 -100.13930 37037 ft 487 kts 82°
2026-04-18 00:47 82.00763 -99.65949 37032 ft 487 kts 82°
2026-04-18 00:47 82.01868 -99.17880 37029 ft 487 kts 82°
2026-04-18 00:48 82.02929 -98.69792 37024 ft 487 kts 83°
2026-04-18 00:48 82.03923 -98.21521 37021 ft 487 kts 83°
2026-04-18 00:49 82.05291 -97.49173 37023 ft 486 kts 84°
2026-04-18 00:49 82.06134 -97.00679 37007 ft 486 kts 84°
2026-04-18 00:50 82.06922 -96.52054 37005 ft 486 kts 85°
2026-04-18 00:50 82.07655 -96.03268 37007 ft 486 kts 85°
2026-04-18 00:51 82.08330 -95.54481 37001 ft 486 kts 86°
2026-04-18 00:51 82.08948 -95.05611 37002 ft 486 kts 86°
2026-04-18 00:52 82.09511 -94.56602 36989 ft 486 kts 87°
2026-04-18 00:52 82.10014 -94.07707 36987 ft 485 kts 87°
2026-04-18 00:53 82.10459 -93.58805 36986 ft 484 kts 88°
2026-04-18 00:53 82.10848 -93.09927 36986 ft 483 kts 88°
2026-04-18 00:54 82.11179 -92.61073 36979 ft 482 kts 89°
2026-04-18 00:54 82.11453 -92.12273 36975 ft 482 kts 89°
2026-04-18 00:55 82.11669 -91.63769 36973 ft 482 kts 90°
2026-04-18 00:55 82.11830 -91.14971 36972 ft 482 kts 90°
2026-04-18 00:56 82.11935 -90.66165 36966 ft 482 kts 91°
2026-04-18 00:56 82.11983 -90.17293 36963 ft 482 kts 91°
2026-04-18 00:57 82.11975 -89.68449 36964 ft 482 kts 92°
2026-04-18 00:57 82.11910 -89.19542 36962 ft 482 kts 92°
2026-04-18 00:58 82.11788 -88.70629 36956 ft 483 kts 92°
2026-04-18 00:58 82.11610 -88.21740 36952 ft 483 kts 93°
2026-04-18 00:59 82.11375 -87.72818 36946 ft 483 kts 94°
2026-04-18 00:59 82.11085 -87.24301 36944 ft 483 kts 94°
2026-04-18 01:00 82.10738 -86.75519 36949 ft 483 kts 95°
2026-04-18 01:00 82.10333 -86.26721 36947 ft 483 kts 95°
2026-04-18 01:01 82.09870 -85.77948 36923 ft 483 kts 96°
2026-04-18 01:01 82.09354 -85.29331 36934 ft 483 kts 96°
2026-04-18 01:02 82.08781 -84.80702 36925 ft 483 kts 97°
2026-04-18 01:02 82.08152 -84.32212 36901 ft 483 kts 97°
2026-04-18 01:03 82.07467 -83.83808 36909 ft 483 kts 97°
2026-04-18 01:03 82.06730 -83.35741 36912 ft 483 kts 98°
2026-04-18 01:04 82.05934 -82.87481 36897 ft 483 kts 98°
2026-04-18 01:04 82.05082 -82.39311 36896 ft 483 kts 99°
2026-04-18 01:05 82.04176 -81.91266 36897 ft 483 kts 99°
2026-04-18 01:05 82.03213 -81.43273 36881 ft 483 kts 100°
2026-04-18 01:06 82.02199 -80.95499 36866 ft 482 kts 100°
2026-04-18 01:06 82.01145 -80.48137 36865 ft 482 kts 101°
2026-04-18 01:07 82.00545 -80.00099 36857 ft 484 kts 92°
2026-04-18 01:07 82.00970 -79.51703 36846 ft 487 kts 83°
2026-04-18 01:08 82.02040 -79.03538 36843 ft 488 kts 83°
2026-04-18 01:08 82.03125 -78.55176 36813 ft 489 kts 83°
2026-04-18 01:09 82.04132 -78.06648 36809 ft 489 kts 84°
2026-04-18 01:09 82.05055 -77.58038 36796 ft 489 kts 84°
2026-04-18 01:10 82.05915 -77.09252 36806 ft 489 kts 85°
2026-04-18 01:10 82.06713 -76.60646 36799 ft 490 kts 85°
2026-04-18 01:11 82.07462 -76.11574 36817 ft 490 kts 86°
2026-04-18 01:11 82.08155 -75.62391 36812 ft 490 kts 86°
2026-04-18 01:12 82.08789 -75.13174 36809 ft 490 kts 87°
2026-04-18 01:12 82.09365 -74.63895 36820 ft 490 kts 88°
2026-04-18 01:13 82.09884 -74.14478 36811 ft 490 kts 88°
2026-04-18 01:13 82.10345 -73.65011 36816 ft 490 kts 89°
2026-04-18 01:14 82.10748 -73.15503 36827 ft 490 kts 89°
2026-04-18 01:14 82.11092 -72.65945 36837 ft 490 kts 90°
2026-04-18 01:15 82.11376 -72.16686 36860 ft 490 kts 90°
2026-04-18 01:15 82.11604 -71.67074 36882 ft 490 kts 90°
2026-04-18 01:16 82.11774 -71.17409 36910 ft 490 kts 91°
2026-04-18 01:16 82.11885 -70.67744 36897 ft 490 kts 91°
2026-04-18 01:17 82.11938 -70.18046 36914 ft 491 kts 92°
2026-04-18 01:17 82.11932 -69.68346 36937 ft 491 kts 92°
2026-04-18 01:18 82.11868 -69.18595 36943 ft 491 kts 93°
2026-04-18 01:18 82.11744 -68.68834 36932 ft 491 kts 94°
2026-04-18 01:19 82.11563 -68.19130 36938 ft 490 kts 94°
2026-04-18 01:19 82.11325 -67.69840 36934 ft 490 kts 95°
2026-04-18 01:20 82.11026 -67.20254 36932 ft 490 kts 95°
2026-04-18 01:20 82.10670 -66.70718 36934 ft 490 kts 95°
2026-04-18 01:21 82.10256 -66.21252 36934 ft 490 kts 96°
2026-04-18 01:21 82.09784 -65.71821 36937 ft 490 kts 96°
2026-04-18 01:22 82.09251 -65.22290 36943 ft 490 kts 97°
2026-04-18 01:22 82.08667 -64.73312 36951 ft 490 kts 97°
2026-04-18 01:23 82.08020 -64.24048 36952 ft 491 kts 98°
2026-04-18 01:23 82.07315 -63.74803 36953 ft 491 kts 98°
2026-04-18 01:24 82.06552 -63.25580 36960 ft 491 kts 99°
2026-04-18 01:24 82.05874 -62.84769 36974 ft 491 kts 99°
2026-04-18 01:25 82.05007 -62.35825 36979 ft 491 kts 100°
2026-04-18 01:25 82.04082 -61.86958 36967 ft 491 kts 100°
2026-04-18 01:26 82.03101 -61.38214 36975 ft 491 kts 101°
2026-04-18 01:26 82.02064 -60.89620 36971 ft 491 kts 101°
2026-04-18 01:27 82.00975 -60.41125 36972 ft 491 kts 102°
2026-04-18 01:27 81.99840 -59.93027 36976 ft 491 kts 102°
2026-04-18 01:28 81.98740 -59.44640 36963 ft 492 kts 101°
2026-04-18 01:28 81.97642 -58.96326 36971 ft 492 kts 102°
2026-04-18 01:29 81.96484 -58.48086 36964 ft 492 kts 102°
2026-04-18 01:29 81.95258 -57.99927 36955 ft 492 kts 103°
2026-04-18 01:30 81.93973 -57.52037 36960 ft 492 kts 103°
2026-04-18 01:30 81.92632 -57.04303 36948 ft 492 kts 104°
2026-04-18 01:31 81.91237 -56.56743 36947 ft 491 kts 104°
2026-04-18 01:31 81.89788 -56.09357 36946 ft 491 kts 105°
2026-04-18 01:32 81.88295 -55.62484 36944 ft 491 kts 105°
2026-04-18 01:32 81.86740 -55.15496 36950 ft 491 kts 105°
2026-04-18 01:33 81.85128 -54.68633 36945 ft 491 kts 106°
2026-04-18 01:33 81.83464 -54.21960 36944 ft 491 kts 107°
2026-04-18 01:34 81.81747 -53.75521 36949 ft 491 kts 107°
2026-04-18 01:34 81.79978 -53.29284 36940 ft 491 kts 108°
2026-04-18 01:35 81.78158 -52.83284 36934 ft 491 kts 108°
2026-04-18 01:35 81.76285 -52.37466 36930 ft 491 kts 108°
2026-04-18 01:36 81.74375 -51.92188 36937 ft 490 kts 109°
2026-04-18 01:36 81.72403 -51.46876 36946 ft 490 kts 109°
2026-04-18 01:37 81.70377 -51.01708 36951 ft 490 kts 110°
2026-04-18 01:37 81.68301 -50.56781 36942 ft 490 kts 110°
2026-04-18 01:38 81.66179 -50.12156 36936 ft 490 kts 110°
2026-04-18 01:38 81.64007 -49.67751 36935 ft 489 kts 111°
2026-04-18 01:39 81.61785 -49.23574 36919 ft 489 kts 111°
2026-04-18 01:39 81.59516 -48.79656 36916 ft 489 kts 112°
2026-04-18 01:40 81.57214 -48.36251 36908 ft 489 kts 112°
2026-04-18 01:40 81.54851 -47.92851 36901 ft 489 kts 113°
2026-04-18 01:41 81.52440 -47.49676 36893 ft 489 kts 113°
2026-04-18 01:41 81.49981 -47.06749 36892 ft 489 kts 114°
2026-04-18 01:42 81.47477 -46.64086 36901 ft 488 kts 114°
2026-04-18 01:42 81.44930 -46.21729 36906 ft 488 kts 115°
2026-04-18 01:43 81.42339 -45.79649 36897 ft 487 kts 115°
2026-04-18 01:43 81.39705 -45.37876 36894 ft 487 kts 115°
2026-04-18 01:44 81.37032 -44.96422 36881 ft 486 kts 116°
2026-04-18 01:44 81.34335 -44.55550 36881 ft 486 kts 116°
2026-04-18 01:45 81.31575 -44.14620 36886 ft 486 kts 117°
2026-04-18 01:45 81.28758 -43.73765 36889 ft 485 kts 117°
2026-04-18 01:46 81.25935 -43.33685 36886 ft 485 kts 117°
2026-04-18 01:46 81.23046 -42.93544 36878 ft 485 kts 118°
2026-04-18 01:47 81.20121 -42.53743 36867 ft 485 kts 118°
2026-04-18 01:47 81.17156 -42.14226 36854 ft 485 kts 118°
2026-04-18 01:48 81.14148 -41.74940 36840 ft 485 kts 119°
2026-04-18 01:48 81.11123 -41.36210 36826 ft 485 kts 119°
2026-04-18 01:49 81.08042 -40.97546 36819 ft 484 kts 120°
2026-04-18 01:49 81.04922 -40.59135 36808 ft 484 kts 120°
2026-04-18 01:50 81.01770 -40.20992 36802 ft 484 kts 121°
2026-04-18 01:50 80.98292 -39.84317 36790 ft 480 kts 129°
2026-04-18 01:51 80.94261 -39.50465 36797 ft 480 kts 129°
2026-04-18 01:51 80.90252 -39.16973 36793 ft 479 kts 129°
2026-04-18 01:52 80.86215 -38.83490 36800 ft 479 kts 129°
2026-04-18 01:52 80.82165 -38.50338 36797 ft 478 kts 130°
2026-04-18 01:53 80.78082 -38.17465 36805 ft 478 kts 130°
2026-04-18 01:54 80.71911 -37.68784 36816 ft 478 kts 130°
2026-04-18 01:54 80.67759 -37.36678 36811 ft 478 kts 131°
2026-04-18 01:55 80.63585 -37.04900 36825 ft 477 kts 131°
2026-04-18 01:55 80.59376 -36.73355 36836 ft 477 kts 131°
2026-04-18 01:56 80.55172 -36.42327 36843 ft 477 kts 132°
2026-04-18 01:56 80.50912 -36.11368 36851 ft 477 kts 132°
2026-04-18 01:57 80.46627 -35.80693 36856 ft 478 kts 132°
2026-04-18 01:57 80.42310 -35.50249 36859 ft 478 kts 133°
2026-04-18 01:58 80.37965 -35.20074 36857 ft 478 kts 133°
2026-04-18 01:58 80.33598 -34.90191 36862 ft 478 kts 133°
2026-04-18 01:59 80.29204 -34.60563 36861 ft 478 kts 133°
2026-04-18 01:59 80.24784 -34.31201 36858 ft 478 kts 134°
2026-04-18 02:00 80.20369 -34.02291 36859 ft 478 kts 134°
2026-04-18 02:00 80.15901 -33.73454 36854 ft 478 kts 134°
2026-04-18 02:01 80.11410 -33.44887 36867 ft 478 kts 134°
2026-04-18 02:01 80.06896 -33.16578 36863 ft 478 kts 135°
2026-04-18 02:02 80.02358 -32.88527 36867 ft 478 kts 135°
2026-04-18 02:02 79.97796 -32.60716 36880 ft 478 kts 135°
2026-04-18 02:03 79.93217 -32.33194 36884 ft 477 kts 135°
2026-04-18 02:03 79.88609 -32.05884 36896 ft 477 kts 136°
2026-04-18 02:04 79.83984 -31.78846 36909 ft 477 kts 136°
2026-04-18 02:04 79.79332 -31.52026 36927 ft 477 kts 136°
2026-04-18 02:05 79.74668 -31.25498 36946 ft 477 kts 136°
2026-04-18 02:05 79.70010 -30.99364 36965 ft 477 kts 137°
2026-04-18 02:06 79.65305 -30.73316 36982 ft 477 kts 137°
2026-04-18 02:06 79.60574 -30.47480 36999 ft 476 kts 137°
2026-04-18 02:07 79.55828 -30.21901 37008 ft 476 kts 137°
2026-04-18 02:07 79.51062 -29.96550 37015 ft 476 kts 137°
2026-04-18 02:08 79.46280 -29.71445 37013 ft 476 kts 138°
2026-04-18 02:08 79.41478 -29.46570 37013 ft 476 kts 138°
2026-04-18 02:09 79.36660 -29.21927 37014 ft 476 kts 138°
2026-04-18 02:09 79.32641 -29.01618 37008 ft 475 kts 138°
2026-04-18 02:10 79.27003 -28.73488 37003 ft 475 kts 139°
2026-04-18 02:10 79.22135 -28.49531 37006 ft 475 kts 139°
2026-04-18 02:11 79.18044 -28.29633 37003 ft 475 kts 139°
2026-04-18 02:11 79.13146 -28.06082 37004 ft 475 kts 139°
2026-04-18 02:12 79.08265 -27.82903 37004 ft 474 kts 139°
2026-04-18 02:12 79.03335 -27.59784 37002 ft 474 kts 139°
2026-04-18 02:13 78.98390 -27.36877 36999 ft 474 kts 140°
2026-04-18 02:13 78.93430 -27.14185 36998 ft 474 kts 140°
2026-04-18 02:14 78.88447 -26.91663 36994 ft 474 kts 140°
2026-04-18 02:14 78.83450 -26.69353 36991 ft 474 kts 140°
2026-04-18 02:15 78.78432 -26.47217 36993 ft 474 kts 140°
2026-04-18 02:15 78.73400 -26.25287 36995 ft 475 kts 140°
2026-04-18 02:16 78.68386 -26.03694 36996 ft 475 kts 141°
2026-04-18 02:16 78.63318 -25.82128 37004 ft 475 kts 141°
2026-04-18 02:17 78.58237 -25.60761 37003 ft 475 kts 141°
2026-04-18 02:17 78.53138 -25.39568 37015 ft 475 kts 141°
2026-04-18 02:18 78.48023 -25.18562 37013 ft 475 kts 141°
2026-04-18 02:18 78.42893 -24.97736 37016 ft 475 kts 142°
2026-04-18 02:19 78.37749 -24.77094 37015 ft 475 kts 142°
2026-04-18 02:19 78.32583 -24.56604 37006 ft 476 kts 142°
2026-04-18 02:20 78.27403 -24.36292 36998 ft 476 kts 142°
2026-04-18 02:20 78.22235 -24.16259 36986 ft 476 kts 142°
2026-04-18 02:21 78.17024 -23.96286 36975 ft 476 kts 142°
2026-04-18 02:21 78.11795 -23.76469 36962 ft 476 kts 142°
2026-04-18 02:22 78.06550 -23.56819 36952 ft 476 kts 143°
2026-04-18 02:22 78.01295 -23.37351 36943 ft 477 kts 143°
2026-04-18 02:23 77.96024 -23.18038 36940 ft 477 kts 143°
2026-04-18 02:23 77.90728 -22.98852 36935 ft 477 kts 143°
2026-04-18 02:24 77.85423 -22.79843 36927 ft 477 kts 143°
2026-04-18 02:24 77.80142 -22.61128 36933 ft 477 kts 144°
2026-04-18 02:25 77.74807 -22.42424 36931 ft 478 kts 144°
2026-04-18 02:25 77.69454 -22.23864 36942 ft 478 kts 144°
2026-04-18 02:26 77.64088 -22.05460 36941 ft 478 kts 144°
2026-04-18 02:26 77.58708 -21.87209 36937 ft 479 kts 144°
2026-04-18 02:27 77.53310 -21.69093 36934 ft 479 kts 145°
2026-04-18 02:27 77.47907 -21.51152 36941 ft 479 kts 145°
2026-04-18 02:28 77.42489 -21.33351 36941 ft 479 kts 145°
2026-04-18 02:28 77.37043 -21.15651 36933 ft 479 kts 145°
2026-04-18 02:29 77.31599 -20.98141 36934 ft 479 kts 146°
2026-04-18 02:29 77.26144 -20.80778 36937 ft 479 kts 146°
2026-04-18 02:30 77.20714 -20.63678 36936 ft 479 kts 146°
2026-04-18 02:30 77.15229 -20.46580 36930 ft 479 kts 146°
2026-04-18 02:31 77.09744 -20.29654 36939 ft 479 kts 146°
2026-04-18 02:31 77.04245 -20.12845 36925 ft 479 kts 146°
2026-04-18 02:32 76.98773 -19.95991 36932 ft 479 kts 143°
2026-04-18 02:32 76.93522 -19.77844 36928 ft 478 kts 143°
2026-04-18 02:33 76.88251 -19.59938 36934 ft 478 kts 143°
2026-04-18 02:33 76.82956 -19.42185 36929 ft 478 kts 144°
2026-04-18 02:34 76.77652 -19.24585 36934 ft 478 kts 144°
2026-04-18 02:34 76.72370 -19.07229 36931 ft 478 kts 144°
2026-04-18 02:35 76.67045 -18.89905 36935 ft 478 kts 144°
2026-04-18 02:35 76.61706 -18.72704 36929 ft 478 kts 144°
2026-04-18 02:36 76.56358 -18.55650 36926 ft 478 kts 144°
2026-04-18 02:36 76.50997 -18.38721 36927 ft 478 kts 145°
2026-04-18 02:37 76.45621 -18.21914 36924 ft 478 kts 145°
2026-04-18 02:37 76.40238 -18.05249 36922 ft 478 kts 145°
2026-04-18 02:38 76.34872 -17.88796 36919 ft 478 kts 145°
2026-04-18 02:38 76.29466 -17.72385 36918 ft 478 kts 146°
2026-04-18 02:39 76.24049 -17.56098 36916 ft 478 kts 146°
2026-04-18 02:39 76.18617 -17.39924 36915 ft 478 kts 146°
2026-04-18 02:40 76.13176 -17.23879 36911 ft 478 kts 146°
2026-04-18 02:40 76.07726 -17.07963 36910 ft 479 kts 146°
2026-04-18 02:41 76.02295 -16.92250 36908 ft 479 kts 147°
2026-04-18 02:41 75.96817 -16.76552 36903 ft 479 kts 147°
2026-04-18 02:42 75.91335 -16.60990 36904 ft 479 kts 147°
2026-04-18 02:42 75.85839 -16.45536 36903 ft 479 kts 147°
2026-04-18 02:43 75.80374 -16.30313 36898 ft 479 kts 147°
2026-04-18 02:43 75.74866 -16.15109 36897 ft 478 kts 147°
2026-04-18 02:44 75.69352 -16.00033 36890 ft 478 kts 147°
2026-04-18 02:44 75.63818 -15.85041 36890 ft 478 kts 148°
2026-04-18 02:45 75.58284 -15.70187 36883 ft 478 kts 148°
2026-04-18 02:45 75.52742 -15.55448 36883 ft 478 kts 148°
2026-04-18 02:46 75.47193 -15.40822 36879 ft 478 kts 148°
2026-04-18 02:46 75.41626 -15.26283 36876 ft 478 kts 148°
2026-04-18 02:47 75.36067 -15.11897 36875 ft 478 kts 148°
2026-04-18 02:47 75.30532 -14.97701 36877 ft 477 kts 149°
2026-04-18 02:48 75.24951 -14.83514 36869 ft 477 kts 149°
2026-04-18 02:48 75.19368 -14.69449 36864 ft 477 kts 149°
2026-04-18 02:49 75.13773 -14.55478 36871 ft 477 kts 149°
2026-04-18 02:49 75.08167 -14.41603 36873 ft 477 kts 149°
2026-04-18 02:50 75.02564 -14.27857 36869 ft 477 kts 149°
2026-04-18 02:50 74.96951 -14.14206 36869 ft 476 kts 149°
2026-04-18 02:51 74.91331 -14.00658 36870 ft 476 kts 150°
2026-04-18 02:51 74.85741 -13.87298 36867 ft 476 kts 150°
2026-04-18 02:52 74.80108 -13.73953 36870 ft 476 kts 150°
2026-04-18 02:52 74.74468 -13.60704 36870 ft 476 kts 150°
2026-04-18 02:53 74.68821 -13.47554 36871 ft 476 kts 150°
2026-04-18 02:53 74.63162 -13.34486 36872 ft 476 kts 150°
2026-04-18 02:54 74.57498 -13.21520 36864 ft 476 kts 150°
2026-04-18 02:54 74.51827 -13.08645 36872 ft 476 kts 151°
2026-04-18 02:55 74.46154 -12.95876 36870 ft 476 kts 151°
2026-04-18 02:55 74.40497 -12.83248 36874 ft 476 kts 151°
2026-04-18 02:56 74.34768 -12.70567 36871 ft 476 kts 151°
2026-04-18 02:56 74.26246 -12.51900 36873 ft 476 kts 152°
2026-04-18 02:57 74.20541 -12.39530 36878 ft 476 kts 152°
2026-04-18 02:57 74.15790 -12.29308 36878 ft 476 kts 152°
2026-04-18 02:58 74.10069 -12.17091 36878 ft 476 kts 152°
2026-04-18 02:58 74.04338 -12.04952 36878 ft 476 kts 152°
2026-04-18 02:59 73.98606 -11.92911 36875 ft 476 kts 152°
2026-04-18 02:59 73.92865 -11.80949 36882 ft 476 kts 153°
2026-04-18 03:00 73.87110 -11.69054 36881 ft 476 kts 153°
2026-04-18 03:00 73.81357 -11.57259 36885 ft 476 kts 153°
2026-04-18 03:01 73.75633 -11.45616 36893 ft 476 kts 153°
2026-04-18 03:01 73.69865 -11.33978 36886 ft 476 kts 153°
2026-04-18 03:02 73.64094 -11.22426 36883 ft 476 kts 153°
2026-04-18 03:02 73.58309 -11.10939 36880 ft 476 kts 153°
2026-04-18 03:03 73.52520 -10.99534 36884 ft 476 kts 153°
2026-04-18 03:03 73.46729 -10.88213 36887 ft 476 kts 154°
2026-04-18 03:04 73.40937 -10.76980 36883 ft 476 kts 154°
2026-04-18 03:04 73.35137 -10.65820 36884 ft 476 kts 154°
2026-04-18 03:05 73.29337 -10.54745 36885 ft 475 kts 154°
2026-04-18 03:05 73.23534 -10.43749 36890 ft 475 kts 154°
2026-04-18 03:06 73.17758 -10.32889 36887 ft 475 kts 154°
2026-04-18 03:06 73.11941 -10.22033 36890 ft 475 kts 154°
2026-04-18 03:07 73.06130 -10.11269 36892 ft 474 kts 154°
2026-04-18 03:07 73.00311 -10.00570 36893 ft 474 kts 154°
2026-04-18 03:08 72.94417 -9.90565 36892 ft 473 kts 158°
2026-04-18 03:08 72.88430 -9.81232 36895 ft 472 kts 158°
2026-04-18 03:09 72.82447 -9.71953 36890 ft 473 kts 158°
2026-04-18 03:09 72.76477 -9.62630 36889 ft 472 kts 158°
2026-04-18 03:10 72.70545 -9.53370 36889 ft 472 kts 158°
2026-04-18 03:10 72.64580 -9.44115 36892 ft 472 kts 158°
2026-04-18 03:11 72.58613 -9.34930 36890 ft 472 kts 158°
2026-04-18 03:11 72.52642 -9.25809 36894 ft 472 kts 158°
2026-04-18 03:12 72.46652 -9.16729 36893 ft 472 kts 158°
2026-04-18 03:12 72.40672 -9.07729 36890 ft 472 kts 158°
2026-04-18 03:13 72.34692 -8.98794 36889 ft 472 kts 158°
2026-04-18 03:13 72.28707 -8.89916 36890 ft 472 kts 158°
2026-04-18 03:14 72.22759 -8.81156 36891 ft 471 kts 159°
2026-04-18 03:14 72.16769 -8.72398 36884 ft 471 kts 159°
2026-04-18 03:15 72.10775 -8.63695 36887 ft 471 kts 159°
2026-04-18 03:15 72.04781 -8.55055 36883 ft 471 kts 159°
2026-04-18 03:16 71.98780 -8.46466 36887 ft 471 kts 159°
2026-04-18 03:16 71.92777 -8.37933 36883 ft 471 kts 159°
2026-04-18 03:17 71.86777 -8.29465 36887 ft 471 kts 159°
2026-04-18 03:17 71.80780 -8.21064 37231 ft 474 kts 159°
2026-04-18 03:18 71.77723 -8.16802 37528 ft 473 kts 159°
2026-04-18 03:18 71.74704 -8.12607 37810 ft 473 kts 159°
2026-04-18 03:18 71.71682 -8.08424 38058 ft 474 kts 159°
2026-04-18 03:18 71.68696 -8.04305 38279 ft 474 kts 159°
2026-04-18 03:19 71.65658 -8.00129 38507 ft 475 kts 159°
2026-04-18 03:19 71.62617 -7.95962 38705 ft 475 kts 159°
2026-04-18 03:19 71.56519 -7.87653 38845 ft 476 kts 159°
2026-04-18 03:20 71.50474 -7.79466 38874 ft 469 kts 159°
2026-04-18 03:20 71.44494 -7.71427 38878 ft 466 kts 159°
2026-04-18 03:21 71.38522 -7.63456 38885 ft 465 kts 159°
2026-04-18 03:21 71.32607 -7.55614 38882 ft 465 kts 159°
2026-04-18 03:22 71.26641 -7.47757 38888 ft 466 kts 159°
2026-04-18 03:22 71.20656 -7.39927 38890 ft 466 kts 159°
2026-04-18 03:23 71.14667 -7.32142 38899 ft 467 kts 159°
2026-04-18 03:23 71.08658 -7.24384 38900 ft 468 kts 159°
2026-04-18 03:24 71.02637 -7.16662 38894 ft 469 kts 159°
2026-04-18 03:24 70.96596 -7.08965 38885 ft 470 kts 159°
2026-04-18 03:25 70.90551 -7.01314 38888 ft 470 kts 160°
2026-04-18 03:25 70.84503 -6.93710 38889 ft 470 kts 160°
2026-04-18 03:26 70.78484 -6.86193 38886 ft 471 kts 160°
2026-04-18 03:26 70.72425 -6.78674 38886 ft 471 kts 160°
2026-04-18 03:27 70.66354 -6.71191 38885 ft 471 kts 160°
2026-04-18 03:27 70.60284 -6.63756 38885 ft 471 kts 160°
2026-04-18 03:28 70.54203 -6.56358 38886 ft 471 kts 160°
2026-04-18 03:28 70.48123 -6.49007 38884 ft 471 kts 160°
2026-04-18 03:29 70.42036 -6.41696 38883 ft 471 kts 160°
2026-04-18 03:29 70.35945 -6.34428 38884 ft 472 kts 160°
2026-04-18 03:30 70.29847 -6.27198 38887 ft 472 kts 160°
2026-04-18 03:30 70.23779 -6.20049 38884 ft 472 kts 160°
2026-04-18 03:31 70.17667 -6.12894 38885 ft 472 kts 160°
2026-04-18 03:31 70.11558 -6.05788 38885 ft 472 kts 160°
2026-04-18 03:32 70.05436 -5.98712 38883 ft 472 kts 160°
2026-04-18 03:32 69.99313 -5.91680 38883 ft 473 kts 160°
2026-04-18 03:33 69.93185 -5.84687 38887 ft 473 kts 160°
2026-04-18 03:33 69.87059 -5.77739 38885 ft 473 kts 160°
2026-04-18 03:34 69.80965 -5.70872 38880 ft 473 kts 160°
2026-04-18 03:34 69.74829 -5.64000 38882 ft 473 kts 160°
2026-04-18 03:35 69.68685 -5.57160 38882 ft 473 kts 160°
2026-04-18 03:35 69.62545 -5.50369 38879 ft 473 kts 160°
2026-04-18 03:36 69.56399 -5.43612 38882 ft 473 kts 161°
2026-04-18 03:36 69.50259 -5.36904 38880 ft 473 kts 160°
2026-04-18 03:37 69.44110 -5.30228 38882 ft 473 kts 161°
2026-04-18 03:37 69.38000 -5.23635 38878 ft 473 kts 161°
2026-04-18 03:38 69.31847 -5.17035 38879 ft 473 kts 161°
2026-04-18 03:38 69.25692 -5.10472 38879 ft 473 kts 161°
2026-04-18 03:39 69.19530 -5.03943 38879 ft 473 kts 161°
2026-04-18 03:39 69.13363 -4.97448 38879 ft 473 kts 161°
2026-04-18 03:40 69.07181 -4.90975 38880 ft 473 kts 161°
2026-04-18 03:40 69.01010 -4.84554 38877 ft 474 kts 161°
2026-04-18 03:41 68.94831 -4.78162 38876 ft 474 kts 161°
2026-04-18 03:41 68.88649 -4.71806 38877 ft 474 kts 161°
2026-04-18 03:42 68.82505 -4.65526 38874 ft 474 kts 161°
2026-04-18 03:42 68.76316 -4.59238 38874 ft 474 kts 161°
2026-04-18 03:43 68.70127 -4.52988 38873 ft 474 kts 161°
2026-04-18 03:43 68.63936 -4.46771 38875 ft 474 kts 161°
2026-04-18 03:44 68.57739 -4.40585 38872 ft 474 kts 161°
2026-04-18 03:44 68.51546 -4.34440 38872 ft 473 kts 161°
2026-04-18 03:45 68.45344 -4.28323 38872 ft 473 kts 161°
2026-04-18 03:45 68.39146 -4.22241 38871 ft 473 kts 161°
2026-04-18 03:46 68.33994 -4.17216 38871 ft 473 kts 161°
2026-04-18 03:46 68.26784 -4.10223 38873 ft 473 kts 161°
2026-04-18 03:47 68.21581 -4.05205 38869 ft 473 kts 161°
2026-04-18 03:47 68.15419 -3.99296 38871 ft 474 kts 161°
2026-04-18 03:48 68.09202 -3.93367 38872 ft 474 kts 162°
2026-04-18 03:48 68.02992 -3.87476 38873 ft 474 kts 161°
2026-04-18 03:49 67.96767 -3.81607 38870 ft 474 kts 161°
2026-04-18 03:49 67.90545 -3.75772 38871 ft 474 kts 162°
2026-04-18 03:50 67.84326 -3.69974 38870 ft 474 kts 162°
2026-04-18 03:50 67.78105 -3.64207 38872 ft 474 kts 162°
2026-04-18 03:51 67.71881 -3.58469 38871 ft 474 kts 162°
2026-04-18 03:51 67.65680 -3.52786 38869 ft 474 kts 162°
2026-04-18 03:52 67.59450 -3.47107 38868 ft 474 kts 162°
2026-04-18 03:52 67.53213 -3.41454 38871 ft 474 kts 162°
2026-04-18 03:53 67.46971 -3.35827 38871 ft 474 kts 162°
2026-04-18 03:53 67.40732 -3.30236 38867 ft 474 kts 162°
2026-04-18 03:54 67.34482 -3.24664 38868 ft 474 kts 162°
2026-04-18 03:54 67.28271 -3.19157 38871 ft 474 kts 162°
2026-04-18 03:55 67.22026 -3.13651 38870 ft 474 kts 162°
2026-04-18 03:55 67.15767 -3.08163 38871 ft 475 kts 162°
2026-04-18 03:56 67.09511 -3.02707 38869 ft 475 kts 162°
2026-04-18 03:56 67.03253 -2.97280 38870 ft 475 kts 162°
2026-04-18 03:57 66.93863 -2.89191 38863 ft 475 kts 162°
2026-04-18 03:58 66.87632 -2.83859 38865 ft 475 kts 162°
2026-04-18 03:58 66.81358 -2.78521 38866 ft 475 kts 162°
2026-04-18 03:59 66.75089 -2.73215 38864 ft 475 kts 162°
2026-04-18 03:59 66.68820 -2.67937 38864 ft 475 kts 162°
2026-04-18 04:00 66.62549 -2.62686 38866 ft 475 kts 162°
2026-04-18 04:00 66.56275 -2.57462 38862 ft 475 kts 162°
2026-04-18 04:01 66.49995 -2.52259 38857 ft 474 kts 162°
2026-04-18 04:01 66.43764 -2.47122 38864 ft 474 kts 162°
2026-04-18 04:02 66.37490 -2.41979 38856 ft 475 kts 162°
2026-04-18 04:02 66.31204 -2.36855 38855 ft 475 kts 163°
2026-04-18 04:03 66.24918 -2.31755 38853 ft 475 kts 163°
2026-04-18 04:03 66.18633 -2.26683 38857 ft 475 kts 163°
2026-04-18 04:04 66.12388 -2.21670 38848 ft 474 kts 163°
2026-04-18 04:04 66.06100 -2.16650 38851 ft 474 kts 163°
2026-04-18 04:05 65.99814 -2.11656 38850 ft 474 kts 163°
2026-04-18 04:05 65.93535 -2.06693 38847 ft 474 kts 163°
2026-04-18 04:06 65.87255 -2.01756 38849 ft 474 kts 163°
2026-04-18 04:06 65.80977 -1.96845 38849 ft 474 kts 163°
2026-04-18 04:07 65.74696 -1.91958 38851 ft 474 kts 163°
2026-04-18 04:07 65.68450 -1.87121 38850 ft 473 kts 163°
2026-04-18 04:08 65.62171 -1.82284 38845 ft 473 kts 163°
2026-04-18 04:08 65.55887 -1.77469 38845 ft 473 kts 163°
2026-04-18 04:09 65.49606 -1.72679 38843 ft 473 kts 163°
2026-04-18 04:09 65.43323 -1.67912 38842 ft 473 kts 163°
2026-04-18 04:10 65.37034 -1.63164 38843 ft 473 kts 163°
2026-04-18 04:10 65.30748 -1.58444 38842 ft 473 kts 163°
2026-04-18 04:11 65.24457 -1.53742 38839 ft 473 kts 163°
2026-04-18 04:11 65.18168 -1.49066 38834 ft 473 kts 163°
2026-04-18 04:12 65.11912 -1.44436 38841 ft 474 kts 163°
2026-04-18 04:12 65.05618 -1.39802 38831 ft 474 kts 163°
2026-04-18 04:13 64.99317 -1.35185 38833 ft 474 kts 163°
2026-04-18 04:13 64.93012 -1.30589 38841 ft 474 kts 163°
2026-04-18 04:14 64.86705 -1.26013 38829 ft 474 kts 163°
2026-04-18 04:14 64.80394 -1.21458 38824 ft 475 kts 163°
2026-04-18 04:15 64.74080 -1.16922 38831 ft 475 kts 163°
2026-04-18 04:15 64.67757 -1.12402 38831 ft 475 kts 163°
2026-04-18 04:16 64.61431 -1.07901 38828 ft 475 kts 163°
2026-04-18 04:16 64.55108 -1.03426 38825 ft 475 kts 163°
2026-04-18 04:17 64.48814 -0.98991 38825 ft 475 kts 164°
2026-04-18 04:17 64.42478 -0.94549 38824 ft 476 kts 164°
2026-04-18 04:18 64.36138 -0.90125 38821 ft 476 kts 164°
2026-04-18 04:18 64.29796 -0.85721 38822 ft 476 kts 164°
2026-04-18 04:19 64.23449 -0.81335 38825 ft 476 kts 164°
2026-04-18 04:19 64.17105 -0.76972 38816 ft 476 kts 164°
2026-04-18 04:20 64.10751 -0.72623 38817 ft 476 kts 164°
2026-04-18 04:20 64.04392 -0.68291 38826 ft 477 kts 164°
2026-04-18 04:21 63.98034 -0.63980 38829 ft 477 kts 165°
2026-04-18 04:21 63.91666 -0.59683 38820 ft 477 kts 165°
2026-04-18 04:22 63.85305 -0.55412 38813 ft 477 kts 165°
2026-04-18 04:22 63.78970 -0.51177 38815 ft 477 kts 165°
2026-04-18 04:23 63.72588 -0.46932 38824 ft 477 kts 165°
2026-04-18 04:23 63.66211 -0.42710 38821 ft 478 kts 165°
2026-04-18 04:24 63.59824 -0.38500 38823 ft 478 kts 165°
2026-04-18 04:24 63.53433 -0.34307 38820 ft 478 kts 165°
2026-04-18 04:25 63.47047 -0.30138 38822 ft 478 kts 165°
2026-04-18 04:25 63.40699 -0.26012 38821 ft 478 kts 165°
2026-04-18 04:26 63.34300 -0.21872 38825 ft 479 kts 165°
2026-04-18 04:26 63.27900 -0.17751 38823 ft 479 kts 165°
2026-04-18 04:27 63.21489 -0.13642 38827 ft 479 kts 165°
2026-04-18 04:27 63.15076 -0.09549 38826 ft 479 kts 165°
2026-04-18 04:28 63.08665 -0.05476 38826 ft 480 kts 165°
2026-04-18 04:28 63.02250 -0.01416 38831 ft 480 kts 165°
2026-04-18 04:29 62.96004 0.03865 38830 ft 482 kts 156°
2026-04-18 04:29 62.89968 0.10078 38831 ft 482 kts 156°
2026-04-18 04:30 62.83881 0.16287 38835 ft 483 kts 157°
2026-04-18 04:30 62.77780 0.22431 38833 ft 483 kts 157°
2026-04-18 04:31 62.71669 0.28535 38838 ft 483 kts 157°
2026-04-18 04:31 62.65547 0.34620 38842 ft 483 kts 157°
2026-04-18 04:32 62.59427 0.40677 38843 ft 483 kts 158°
2026-04-18 04:32 62.53304 0.46711 38844 ft 483 kts 158°
2026-04-18 04:33 62.47181 0.52718 38848 ft 483 kts 158°
2026-04-18 04:33 62.41095 0.58661 38847 ft 483 kts 158°
2026-04-18 04:34 62.34963 0.64624 38855 ft 483 kts 158°
2026-04-18 04:34 62.28831 0.70559 38855 ft 483 kts 158°
2026-04-18 04:35 62.23736 0.75469 38856 ft 483 kts 158°
2026-04-18 04:35 62.17609 0.81355 38861 ft 483 kts 158°
2026-04-18 04:36 62.11478 0.87211 38862 ft 482 kts 158°
2026-04-18 04:36 62.05347 0.93042 38867 ft 482 kts 158°
2026-04-18 04:37 61.99211 0.98854 38868 ft 482 kts 158°
2026-04-18 04:37 61.93111 1.04608 38869 ft 482 kts 158°
2026-04-18 04:38 61.86975 1.10373 38870 ft 482 kts 159°
2026-04-18 04:38 61.80831 1.16115 38873 ft 482 kts 159°
2026-04-18 04:39 61.74688 1.21832 38877 ft 483 kts 159°
2026-04-18 04:39 61.68538 1.27533 38877 ft 483 kts 159°
2026-04-18 04:40 61.62384 1.33212 38889 ft 483 kts 159°
2026-04-18 04:40 61.56221 1.38875 38878 ft 483 kts 159°
2026-04-18 04:41 61.50061 1.44504 38887 ft 483 kts 159°
2026-04-18 04:41 61.43892 1.50122 38892 ft 483 kts 159°
2026-04-18 04:42 61.37717 1.55720 38891 ft 484 kts 159°
2026-04-18 04:42 61.31541 1.61293 38892 ft 484 kts 159°
2026-04-18 04:43 61.25399 1.66817 38897 ft 484 kts 159°
2026-04-18 04:43 61.19214 1.72356 38895 ft 484 kts 159°
2026-04-18 04:44 61.13031 1.77864 38894 ft 484 kts 159°
2026-04-18 04:44 61.06844 1.83357 38904 ft 484 kts 160°
2026-04-18 04:45 61.00652 1.88827 38911 ft 484 kts 160°
2026-04-18 04:45 60.94462 1.94276 38917 ft 484 kts 160°
2026-04-18 04:46 60.88305 1.99673 38921 ft 484 kts 159°
2026-04-18 04:46 60.82113 2.05076 38917 ft 484 kts 159°
2026-04-18 04:47 60.75911 2.10463 38921 ft 484 kts 160°
2026-04-18 04:47 60.69704 2.15832 38921 ft 484 kts 160°
2026-04-18 04:48 60.63500 2.21176 38924 ft 484 kts 160°
2026-04-18 04:48 60.57293 2.26503 38926 ft 484 kts 160°
2026-04-18 04:49 60.51072 2.31817 38926 ft 484 kts 160°
2026-04-18 04:49 60.44889 2.37079 38929 ft 485 kts 160°
2026-04-18 04:50 60.38658 2.42355 38935 ft 485 kts 160°
2026-04-18 04:50 60.32431 2.47609 38932 ft 485 kts 160°
2026-04-18 04:51 60.26192 2.52854 38942 ft 486 kts 160°
2026-04-18 04:51 60.19949 2.58080 38945 ft 486 kts 160°
2026-04-18 04:52 60.13702 2.63282 38954 ft 486 kts 160°
2026-04-18 04:52 60.07442 2.68480 38961 ft 487 kts 160°
2026-04-18 04:53 60.01178 2.73657 38968 ft 487 kts 161°
2026-04-18 04:53 59.94941 2.78791 38969 ft 487 kts 160°
2026-04-18 04:54 59.88663 2.83937 38974 ft 488 kts 161°
2026-04-18 04:54 59.82380 2.89068 38970 ft 488 kts 161°
2026-04-18 04:55 59.76091 2.94181 38978 ft 488 kts 161°
2026-04-18 04:55 59.69793 2.99281 38982 ft 489 kts 161°
2026-04-18 04:56 59.60341 3.06897 38989 ft 489 kts 161°
2026-04-18 04:56 59.54019 3.11963 38987 ft 490 kts 161°
2026-04-18 04:57 59.47689 3.17017 39001 ft 490 kts 161°
2026-04-18 04:57 59.41358 3.22049 39002 ft 491 kts 161°
2026-04-18 04:58 59.35064 3.27034 39000 ft 491 kts 161°
2026-04-18 04:58 59.28709 3.32048 39005 ft 492 kts 161°
2026-04-18 04:59 59.22355 3.37039 39007 ft 492 kts 161°
2026-04-18 04:59 59.15993 3.42016 39011 ft 493 kts 161°
2026-04-18 05:00 59.09624 3.46981 39011 ft 493 kts 161°
2026-04-18 05:00 59.03255 3.51922 39013 ft 493 kts 161°
2026-04-18 05:01 58.96875 3.56852 39118 ft 491 kts 161°
2026-04-18 05:01 58.90602 3.61689 39023 ft 480 kts 161°
2026-04-18 05:02 58.84409 3.66440 39026 ft 478 kts 161°
2026-04-18 05:02 58.78266 3.71130 39020 ft 477 kts 161°
2026-04-18 05:03 58.72090 3.75829 39038 ft 477 kts 161°
2026-04-18 05:03 58.65898 3.80522 39032 ft 479 kts 161°
2026-04-18 05:04 58.59678 3.85220 39034 ft 481 kts 161°
2026-04-18 05:04 58.53468 3.89892 39036 ft 482 kts 161°
2026-04-18 05:05 58.47204 3.94588 39036 ft 484 kts 161°
2026-04-18 05:05 58.40917 3.99282 39037 ft 485 kts 161°
2026-04-18 05:06 58.34579 4.03996 39039 ft 486 kts 161°
2026-04-18 05:06 58.28292 4.08655 39040 ft 487 kts 161°
2026-04-18 05:07 58.21978 4.13316 39046 ft 487 kts 161°
2026-04-18 05:07 58.15648 4.17971 39046 ft 487 kts 161°
2026-04-18 05:08 58.09322 4.22604 39049 ft 487 kts 161°
2026-04-18 05:08 58.03032 4.27194 39050 ft 487 kts 162°
2026-04-18 05:09 57.96709 4.31791 39051 ft 487 kts 162°
2026-04-18 05:09 57.90383 4.36372 39065 ft 487 kts 162°
2026-04-18 05:10 57.84049 4.40942 39063 ft 487 kts 162°
2026-04-18 05:10 57.77719 4.45492 39056 ft 487 kts 162°
2026-04-18 05:11 57.71396 4.50019 39063 ft 487 kts 162°
2026-04-18 05:11 57.65105 4.54507 39060 ft 487 kts 162°
2026-04-18 05:12 57.58777 4.59005 39064 ft 487 kts 162°
2026-04-18 05:12 57.52447 4.63488 39065 ft 486 kts 162°
2026-04-18 05:13 57.46119 4.67952 39070 ft 486 kts 162°
2026-04-18 05:13 57.39794 4.72398 39072 ft 486 kts 163°
2026-04-18 05:14 57.33477 4.76821 39071 ft 485 kts 163°
2026-04-18 05:14 57.27156 4.81231 39071 ft 485 kts 163°
2026-04-18 05:15 57.20846 4.85618 39074 ft 484 kts 163°
2026-04-18 05:15 57.14546 4.89983 39079 ft 484 kts 163°
2026-04-18 05:16 57.08244 4.94334 39081 ft 483 kts 163°
2026-04-18 05:16 57.01939 4.98564 39080 ft 481 kts 167°
2026-04-18 05:17 56.95489 5.01148 39081 ft 475 kts 176°
2026-04-18 05:17 56.88931 5.02514 39084 ft 475 kts 177°
2026-04-18 05:18 56.82364 5.03884 39082 ft 475 kts 177°
2026-04-18 05:18 56.75797 5.05294 39078 ft 475 kts 176°
2026-04-18 05:19 56.69210 5.06727 39089 ft 475 kts 176°
2026-04-18 05:19 56.62638 5.08154 39084 ft 476 kts 177°
2026-04-18 05:20 56.56060 5.09577 39088 ft 476 kts 177°
2026-04-18 05:20 56.49468 5.10997 39088 ft 476 kts 177°
2026-04-18 05:21 56.42883 5.12409 39087 ft 477 kts 177°
2026-04-18 05:21 56.36336 5.13809 39094 ft 477 kts 177°
2026-04-18 05:22 56.29743 5.15213 39098 ft 476 kts 177°
2026-04-18 05:22 56.23161 5.16611 39097 ft 476 kts 177°
2026-04-18 05:23 56.16580 5.18004 39096 ft 475 kts 177°
2026-04-18 05:23 56.11112 5.19157 39097 ft 475 kts 177°
2026-04-18 05:24 56.04561 5.20534 39098 ft 474 kts 177°
2026-04-18 05:24 55.98004 5.21908 39102 ft 473 kts 177°
2026-04-18 05:25 55.91462 5.23274 39102 ft 473 kts 177°
2026-04-18 05:25 55.84927 5.24633 39102 ft 472 kts 177°
2026-04-18 05:26 55.78444 5.25978 39106 ft 471 kts 177°
2026-04-18 05:26 55.71934 5.27324 39105 ft 471 kts 177°
2026-04-18 05:27 55.65415 5.28667 39112 ft 471 kts 177°
2026-04-18 05:27 55.58913 5.30002 39109 ft 470 kts 177°
2026-04-18 05:28 55.52410 5.31333 39107 ft 470 kts 177°
2026-04-18 05:28 55.45908 5.32659 39109 ft 470 kts 177°
2026-04-18 05:29 55.39400 5.33982 39112 ft 470 kts 178°
2026-04-18 05:29 55.32901 5.35298 39113 ft 470 kts 178°
2026-04-18 05:30 55.26436 5.36604 39116 ft 471 kts 178°
2026-04-18 05:30 55.19924 5.37915 39117 ft 471 kts 178°
2026-04-18 05:31 55.13413 5.39221 39118 ft 471 kts 178°
2026-04-18 05:31 55.06889 5.40526 39120 ft 471 kts 178°
2026-04-18 05:32 55.00368 5.41831 39121 ft 472 kts 177°
2026-04-18 05:32 54.93869 5.43623 39129 ft 473 kts 175°
2026-04-18 05:33 54.87412 5.45566 39122 ft 474 kts 174°
2026-04-18 05:33 54.80919 5.47506 39127 ft 474 kts 175°
2026-04-18 05:34 54.74415 5.49419 39126 ft 474 kts 175°
2026-04-18 05:34 54.67918 5.51312 39126 ft 474 kts 175°
2026-04-18 05:35 54.61413 5.53200 39127 ft 474 kts 175°
2026-04-18 05:35 54.54912 5.55081 39130 ft 473 kts 175°
2026-04-18 05:36 54.48418 5.56956 39130 ft 473 kts 175°
2026-04-18 05:36 54.41926 5.58823 39131 ft 473 kts 175°
2026-04-18 05:37 54.35478 5.60673 39137 ft 472 kts 175°
2026-04-18 05:37 54.28991 5.62527 39139 ft 472 kts 175°
2026-04-18 05:38 54.22510 5.64374 39137 ft 472 kts 175°
2026-04-18 05:38 54.16032 5.66214 39135 ft 471 kts 175°
2026-04-18 05:39 54.09562 5.68046 39131 ft 471 kts 175°
2026-04-18 05:39 54.03129 5.69862 39143 ft 471 kts 175°
2026-04-18 05:40 53.96659 5.71682 39144 ft 471 kts 175°
2026-04-18 05:40 53.90195 5.73495 39146 ft 470 kts 175°
2026-04-18 05:41 53.83736 5.75301 39148 ft 470 kts 175°
2026-04-18 05:41 53.77269 5.77104 39145 ft 470 kts 175°
2026-04-18 05:42 53.70816 5.78897 39145 ft 470 kts 176°
2026-04-18 05:42 53.64362 5.80685 39148 ft 470 kts 176°
2026-04-18 05:43 53.57959 5.82453 39148 ft 469 kts 176°
2026-04-18 05:43 53.51513 5.84228 39151 ft 469 kts 176°
2026-04-18 05:44 53.45076 5.85994 39154 ft 468 kts 176°
2026-04-18 05:44 53.38642 5.87755 39154 ft 468 kts 176°
2026-04-18 05:45 53.32213 5.89509 39158 ft 468 kts 176°
2026-04-18 05:45 53.25786 5.91256 39152 ft 468 kts 176°
2026-04-18 05:46 53.19370 5.92996 39154 ft 467 kts 176°
2026-04-18 05:46 53.12951 5.94731 39158 ft 467 kts 176°
2026-04-18 05:47 53.06535 5.96460 39151 ft 466 kts 176°
2026-04-18 05:47 53.00729 5.98020 39150 ft 466 kts 176°
2026-04-18 05:48 52.94667 5.99644 39169 ft 466 kts 176°
2026-04-18 05:48 52.88260 6.01356 39163 ft 466 kts 176°
2026-04-18 05:49 52.81851 6.03063 39160 ft 466 kts 176°
2026-04-18 05:49 52.75451 6.04763 39158 ft 466 kts 176°
2026-04-18 05:50 52.69045 6.06459 39159 ft 466 kts 176°
2026-04-18 05:50 52.62646 6.08148 39161 ft 466 kts 176°
2026-04-18 05:51 52.56284 6.09823 39160 ft 466 kts 176°
2026-04-18 05:51 52.49878 6.11504 39164 ft 466 kts 176°
2026-04-18 05:52 52.43472 6.13181 39170 ft 466 kts 176°
2026-04-18 05:52 52.37063 6.14853 39168 ft 466 kts 176°
2026-04-18 05:53 52.30652 6.16521 39172 ft 467 kts 176°
2026-04-18 05:53 52.24243 6.18183 39179 ft 467 kts 176°
2026-04-18 05:54 52.17818 6.19845 39176 ft 467 kts 176°
2026-04-18 05:54 52.11388 6.21504 39177 ft 467 kts 176°
2026-04-18 05:55 52.04965 6.23156 39179 ft 468 kts 176°
2026-04-18 05:55 51.98621 6.25342 39170 ft 473 kts 165°
2026-04-18 05:56 51.92769 6.30119 39161 ft 475 kts 150°
2026-04-18 05:56 51.87584 6.36800 39171 ft 477 kts 146°
2026-04-18 05:57 51.79902 6.47054 39177 ft 477 kts 146°
2026-04-18 05:58 51.74735 6.53800 39177 ft 477 kts 146°
2026-04-18 05:58 51.69549 6.60501 39174 ft 478 kts 146°
2026-04-18 05:59 51.64378 6.67162 39175 ft 479 kts 146°
2026-04-18 05:59 51.61762 6.70524 38816 ft 486 kts 146°
2026-04-18 05:59 51.59122 6.73912 37991 ft 481 kts 146°
2026-04-18 05:59 51.56515 6.77259 37313 ft 478 kts 146°
2026-04-18 06:00 51.53920 6.80585 36590 ft 476 kts 146°
2026-04-18 06:00 51.51333 6.83894 35829 ft 475 kts 146°
2026-04-18 06:00 51.48732 6.87214 34977 ft 477 kts 146°
2026-04-18 06:00 51.46164 6.90486 34235 ft 477 kts 146°
2026-04-18 06:01 51.43551 6.93814 33571 ft 472 kts 146°
2026-04-18 06:01 51.40999 6.97062 32970 ft 467 kts 146°
2026-04-18 06:01 51.38465 7.00280 32406 ft 462 kts 146°
2026-04-18 06:01 51.35958 7.03459 31844 ft 457 kts 146°
2026-04-18 06:02 51.33476 7.06600 31293 ft 453 kts 146°
2026-04-18 06:02 51.31052 7.09664 30754 ft 449 kts 146°
2026-04-18 06:02 51.28610 7.12746 30219 ft 445 kts 146°
2026-04-18 06:02 51.26154 7.15721 29586 ft 438 kts 151°
2026-04-18 06:03 51.23512 7.18023 29045 ft 429 kts 159°
2026-04-18 06:03 51.20815 7.20003 28487 ft 424 kts 159°
2026-04-18 06:03 51.18151 7.21958 27976 ft 420 kts 159°
2026-04-18 06:03 51.15522 7.23975 27435 ft 417 kts 158°
2026-04-18 06:04 51.12931 7.26017 26912 ft 414 kts 157°
2026-04-18 06:04 51.10365 7.28079 26401 ft 412 kts 156°
2026-04-18 06:04 51.07832 7.30177 25885 ft 409 kts 156°
2026-04-18 06:04 51.05315 7.32267 25403 ft 407 kts 156°
2026-04-18 06:05 51.02811 7.34338 24898 ft 405 kts 156°
2026-04-18 06:05 51.00343 7.36372 24416 ft 403 kts 156°
2026-04-18 06:05 50.97854 7.38420 23918 ft 402 kts 156°
2026-04-18 06:05 50.95379 7.40454 23373 ft 400 kts 156°
2026-04-18 06:06 50.92908 7.42483 22832 ft 398 kts 156°
2026-04-18 06:06 50.90453 7.44495 22330 ft 395 kts 155°
2026-04-18 06:06 50.88021 7.46487 21858 ft 392 kts 155°
2026-04-18 06:06 50.85608 7.48461 21359 ft 389 kts 155°
2026-04-18 06:07 50.83211 7.50418 20891 ft 386 kts 155°
2026-04-18 06:07 50.80829 7.52361 20422 ft 384 kts 155°
2026-04-18 06:07 50.78467 7.54285 19945 ft 381 kts 155°
2026-04-18 06:07 50.76113 7.56203 19489 ft 379 kts 155°
2026-04-18 06:08 50.73773 7.58106 19021 ft 377 kts 155°
2026-04-18 06:08 50.71451 7.59991 18553 ft 375 kts 155°
2026-04-18 06:08 50.69141 7.61865 18042 ft 373 kts 155°
2026-04-18 06:08 50.66856 7.63716 17559 ft 373 kts 155°
2026-04-18 06:09 50.64537 7.65593 17106 ft 376 kts 155°
2026-04-18 06:09 50.62199 7.67484 16649 ft 376 kts 155°
2026-04-18 06:09 50.59875 7.69362 16190 ft 373 kts 155°
2026-04-18 06:09 50.57585 7.71210 15769 ft 368 kts 155°
2026-04-18 06:10 50.55309 7.73042 15351 ft 366 kts 155°
2026-04-18 06:10 50.53056 7.74854 14945 ft 364 kts 155°
2026-04-18 06:10 50.50801 7.76665 14545 ft 363 kts 155°
2026-04-18 06:10 50.48559 7.78466 14137 ft 362 kts 155°
2026-04-18 06:11 50.47079 7.79654 13849 ft 361 kts 155°
2026-04-18 06:11 50.44091 7.82049 13252 ft 359 kts 155°
2026-04-18 06:11 50.42677 7.83331 13126 ft 352 kts 148°
2026-04-18 06:11 50.40730 7.85609 13017 ft 347 kts 143°
2026-04-18 06:12 50.38238 7.88843 12876 ft 355 kts 142°
2026-04-18 06:12 50.36951 7.90517 12804 ft 357 kts 142°
2026-04-18 06:12 50.35026 7.92984 12691 ft 356 kts 143°
2026-04-18 06:12 50.33102 7.95408 12571 ft 353 kts 143°
2026-04-18 06:13 50.31209 7.97764 12457 ft 352 kts 143°
2026-04-18 06:13 50.29294 8.00131 12346 ft 350 kts 143°
2026-04-18 06:13 50.27384 8.02486 12266 ft 350 kts 143°
2026-04-18 06:13 50.25475 8.04837 12212 ft 350 kts 143°
2026-04-18 06:14 50.23563 8.07194 12192 ft 349 kts 143°
2026-04-18 06:14 50.21653 8.09546 12191 ft 350 kts 143°
2026-04-18 06:14 50.19740 8.11900 12188 ft 350 kts 143°
2026-04-18 06:14 50.17835 8.14241 12054 ft 347 kts 143°
2026-04-18 06:15 50.15957 8.16549 11687 ft 341 kts 143°
2026-04-18 06:15 50.14135 8.18788 11282 ft 322 kts 143°
2026-04-18 06:15 50.12428 8.20883 10915 ft 313 kts 143°
2026-04-18 06:15 50.10729 8.22962 10566 ft 306 kts 143°
2026-04-18 06:16 50.09096 8.24960 10403 ft 293 kts 143°
2026-04-18 06:16 50.07521 8.26894 10254 ft 283 kts 141°
2026-04-18 06:16 50.06164 8.29087 10103 ft 280 kts 130°
2026-04-18 06:16 50.04988 8.31477 9952 ft 277 kts 128°
2026-04-18 06:17 50.03840 8.33889 9788 ft 276 kts 128°
2026-04-18 06:17 50.02691 8.36277 9632 ft 275 kts 128°
2026-04-18 06:17 50.01542 8.38636 9494 ft 274 kts 128°
2026-04-18 06:17 50.00386 8.40983 9328 ft 273 kts 129°
2026-04-18 06:18 49.99227 8.43316 9180 ft 272 kts 129°
2026-04-18 06:18 49.98063 8.45645 9045 ft 272 kts 129°
2026-04-18 06:18 49.96900 8.47966 8881 ft 272 kts 129°
2026-04-18 06:18 49.95734 8.50288 8736 ft 273 kts 129°
2026-04-18 06:19 49.94702 8.52719 8563 ft 270 kts 111°
2026-04-18 06:19 49.94468 8.55598 8438 ft 271 kts 83°
2026-04-18 06:19 49.94980 8.58400 8300 ft 272 kts 70°
2026-04-18 06:19 49.95656 8.61183 8159 ft 278 kts 69°
2026-04-18 06:20 49.96335 8.63965 8004 ft 279 kts 69°
2026-04-18 06:20 49.97022 8.66785 7831 ft 278 kts 70°
2026-04-18 06:20 49.97697 8.69580 7683 ft 275 kts 70°
2026-04-18 06:20 49.98362 8.72354 7525 ft 273 kts 70°
2026-04-18 06:21 49.99020 8.75107 7381 ft 271 kts 70°
2026-04-18 06:21 49.99672 8.77853 7238 ft 269 kts 70°
2026-04-18 06:21 50.00319 8.80579 7090 ft 269 kts 70°
2026-04-18 06:21 50.00963 8.83301 6936 ft 268 kts 70°
2026-04-18 06:22 50.01602 8.86005 6787 ft 266 kts 70°
2026-04-18 06:22 50.02242 8.88713 6621 ft 266 kts 70°
2026-04-18 06:22 50.02873 8.91388 6401 ft 259 kts 70°
2026-04-18 06:22 50.03489 8.93987 6154 ft 252 kts 70°
2026-04-18 06:23 50.04087 8.96515 5921 ft 247 kts 70°
2026-04-18 06:23 50.04674 8.99003 5653 ft 243 kts 70°
2026-04-18 06:23 50.05412 9.01289 5342 ft 234 kts 48°
2026-04-18 06:23 50.06732 9.02650 5065 ft 227 kts 14°
2026-04-18 06:24 50.08273 9.02695 4896 ft 221 kts 348°
2026-04-18 06:24 50.09782 9.02135 4742 ft 226 kts 344°
2026-04-18 06:24 50.11306 9.01459 4560 ft 225 kts 337°
2026-04-18 06:24 50.12515 9.00081 4367 ft 216 kts 303°
2026-04-18 06:25 50.12975 8.97916 4276 ft 214 kts 266°
2026-04-18 06:25 50.12700 8.95675 4281 ft 210 kts 253°
2026-04-18 06:25 50.12264 8.93471 4227 ft 216 kts 251°
2026-04-18 06:25 50.11764 8.91262 4125 ft 215 kts 249°
2026-04-18 06:26 50.11254 8.89100 4046 ft 210 kts 249°
2026-04-18 06:26 50.10751 8.86988 4005 ft 206 kts 249°
2026-04-18 06:26 50.10248 8.84875 3875 ft 213 kts 249°
2026-04-18 06:26 50.09731 8.82704 3590 ft 212 kts 249°
2026-04-18 06:27 50.09222 8.80564 3331 ft 209 kts 249°
2026-04-18 06:27 50.08723 8.78463 3033 ft 205 kts 249°
2026-04-18 06:27 50.08244 8.76453 2768 ft 191 kts 249°
2026-04-18 06:27 50.07801 8.74590 2552 ft 175 kts 249°
2026-04-18 06:28 50.07391 8.72870 2300 ft 165 kts 250°
2026-04-18 06:28 50.06995 8.71202 2099 ft 168 kts 250°
2026-04-18 06:28 50.06590 8.69503 1875 ft 165 kts 250°
2026-04-18 06:28 50.06206 8.67890 1648 ft 152 kts 250°
2026-04-18 06:29 50.05850 8.66395 1467 ft 145 kts 250°
2026-04-18 06:29 50.05499 8.64920 1264 ft 145 kts 250°
2026-04-18 06:29 50.05149 8.63450 1056 ft 145 kts 250°
2026-04-18 06:29 50.04799 8.61982 848 ft 145 kts 250°
2026-04-18 06:30 50.04448 8.60511 670 ft 145 kts 250°
2026-04-18 06:30 50.04096 8.59029 468 ft 147 kts 249°
2026-04-18 06:30 50.03750 8.57574 370 ft 135 kts 249°
2026-04-18 06:30 50.03461 8.56371 363 ft 97 kts 249°
2026-04-18 06:31 50.03279 8.55611 354 ft 53 kts 249°
2026-04-18 06:31 50.03191 8.55226 353 ft 35 kts 255°
2026-04-18 06:31 50.03181 8.54947 352 ft 23 kts 277°
2026-04-18 06:31 50.03203 8.54736 348 ft 17 kts 279°
2026-04-18 06:32 50.03227 8.54580 350 ft 13 kts 295°
2026-04-18 06:32 50.03298 8.54490 354 ft 14 kts 337°
2026-04-18 06:32 50.03356 8.54456 355 ft 6 kts 340°
2026-04-18 06:32 50.03362 8.54452 355 ft 0 kts 340°
2026-04-18 06:35 50.03392 8.54435 346 ft 7 kts 340°
2026-04-18 06:35 50.03455 8.54399 352 ft 15 kts 340°
2026-04-18 06:36 50.03558 8.54340 353 ft 17 kts 340°
2026-04-18 06:36 50.03625 8.54310 356 ft 8 kts
2026-04-18 06:36 50.03670 8.54363 357 ft 8 kts 44°
2026-04-18 06:36 50.03726 8.54376 352 ft 9 kts 348°
2026-04-18 06:37 50.03782 8.54346 354 ft 9 kts 340°
2026-04-18 06:37 50.03840 8.54336 358 ft 9 kts 22°
2026-04-18 06:37 50.03875 8.54417 358 ft 9 kts 67°
2026-04-18 06:37 50.03898 8.54512 360 ft 9 kts 69°
2026-04-18 06:38 50.03921 8.54608 358 ft 10 kts 70°
2026-04-18 06:38 50.03963 8.54680 361 ft 10 kts 12°
2026-04-18 06:38 50.04020 8.54667 360 ft 6 kts 350°
2026-04-18 06:38 50.04036 8.54683 361 ft 3 kts 43°
2026-04-18 06:39 50.04043 8.54713 360 ft 3 kts 69°
2026-04-18 06:39 50.04051 8.54747 361 ft 3 kts 69°
2026-04-18 06:39 50.04058 8.54773 361 ft 0 kts 69°